Flag for U.S.A. Weather past 2 weeks in Hereford, Texas, U.S.A.

Now
37 °F

Overcast.


Feels Like: 37 °F
Forecast: 35 / 39 °F
Wind: No wind

Location: Clovis Municipal

Current Time: Jan 30, 2015 at 2:43:57 AM

Latest Report: Jan 30, 2015 at 2:15 AM


Visibility: 10 mi

Pressure: 30.46 "Hg

Humidity: 70%

Dew point: 28 °F

Location of HerefordLocation

Historic Weather in Hereford — Graph

°F

Hereford temperature yesterday

Maximum temperature yesterday: 50 °F (at 11:55 AM)
Minimum temperature yesterday: 36 °F (at 10:15 PM)
Average temperature yesterday: 42 °F

Past Weeks' High & Low Weather Summary

 TemperatureHumidityPressure
High70 °F (Jan 27, 3:15 PM)100% (Jan 22, 5:35 AM)30.50 "Hg (Jan 22, 5:35 AM)
Low12 °F (Jan 23, 3:35 AM)16% (Jan 19, 12:55 PM)29.92 "Hg (Jan 17, 3:15 AM)
Average40 °F62%30.20 "Hg
* Reported Jan 15 1:35 AM — Jan 30 1:35 AM, Hereford, Weather by CustomWeather, © 2014

Note: Actual official high and low records may vary slightly from our data, if they occured in-between our weather recording intervals... More about our weather records

Advertising

Hereford weather history for previous 24 hours

 ConditionsComfort  
Time TempWeatherWind HumidityBarometerVisibility
1:35 AM
Jan 30
37 °FMostly cloudy.3 mph70%30.46 "Hg10 mi
1:15 AM37 °FMostly cloudy.No wind70%30.47 "Hg10 mi
12:55 AM36 °FMostly cloudy.5 mph81%30.47 "Hg10 mi
12:35 AM37 °FMostly cloudy.3 mph70%30.48 "Hg10 mi
12:15 AM37 °FPassing clouds.No wind70%30.49 "Hg10 mi
11:55 PM
Jan 29
36 °FClear.No wind75%30.49 "Hg10 mi
11:35 PM36 °FClear.No wind75%30.49 "Hg10 mi
11:15 PM36 °FClear.3 mph75%30.49 "Hg10 mi
10:55 PM36 °FClear.5 mph75%30.49 "Hg10 mi
10:35 PM36 °FClear.7 mph75%30.49 "Hg10 mi
10:15 PM36 °FClear.6 mph70%30.48 "Hg10 mi
9:35 PM37 °FPassing clouds.5 mph65%30.49 "Hg10 mi
9:15 PM37 °FPassing clouds.8 mph70%30.49 "Hg10 mi
8:55 PM39 °FClear.No wind61%30.50 "Hg10 mi
8:35 PM37 °FClear.3 mph65%30.49 "Hg10 mi
8:15 PM37 °FClear.6 mph65%30.48 "Hg10 mi
7:55 PM39 °FClear.8 mph61%30.48 "Hg10 mi
7:35 PM39 °FClear.8 mph61%30.48 "Hg10 mi
7:15 PM41 °FPassing clouds.7 mph57%30.48 "Hg10 mi
6:55 PM43 °FClear.5 mph53%30.48 "Hg10 mi
6:35 PM43 °FClear.6 mph49%30.48 "Hg10 mi
6:15 PM45 °FPassing clouds.8 mph46%30.47 "Hg10 mi
5:55 PM45 °FSunny.9 mph42%30.47 "Hg10 mi
5:35 PM45 °FSunny.13 mph42%30.46 "Hg10 mi
5:15 PM46 °FSunny.13 mph40%30.45 "Hg10 mi
4:55 PM46 °FPassing clouds.13 mph40%30.45 "Hg10 mi
4:35 PM46 °FPassing clouds.14 mph37%30.46 "Hg10 mi
4:15 PM46 °FSunny.15 mph37%30.46 "Hg10 mi
3:55 PM46 °FSunny.16 mph34%30.46 "Hg10 mi
3:35 PM48 °FSunny.16 mph34%30.46 "Hg10 mi
3:15 PM46 °FSunny.18 mph37%30.46 "Hg10 mi
2:55 PM48 °FPassing clouds.17 mph34%30.46 "Hg10 mi
2:35 PM48 °FScattered clouds.21 mph34%30.45 "Hg10 mi
2:15 PMN/A17 mphN/A30.46 "HgN/A
1:55 PM50 °FPassing clouds.20 mph35%30.45 "HgN/A
1:35 PM48 °FPartly sunny.21 mph37%30.46 "HgN/A
1:15 PM50 °FPartly sunny.22 mph35%30.46 "HgN/A
12:55 PM48 °FSunny.24 mph37%30.47 "HgN/A
12:35 PM50 °FSunny.25 mph35%30.48 "HgN/A
12:15 PM50 °FPassing clouds.23 mph37%30.49 "HgN/A
11:55 AM50 °FSunny.23 mph37%30.49 "HgN/A
11:35 AM48 °FSunny.24 mph43%30.49 "HgN/A
11:15 AM48 °FSunny.23 mph43%30.49 "HgN/A
10:55 AM46 °FSunny.23 mph46%30.48 "HgN/A
10:35 AM46 °FSunny.28 mph50%30.47 "HgN/A
10:15 AM46 °FSunny.26 mph50%30.46 "HgN/A
9:55 AM45 °FSunny.22 mph57%30.44 "HgN/A
9:35 AM45 °FSunny.24 mph61%30.43 "HgN/A
9:15 AM43 °FSunny.24 mph66%30.41 "HgN/A
8:55 AM41 °FSunny.22 mph70%30.41 "HgN/A
8:35 AM39 °FSunny.22 mph75%30.39 "HgN/A
8:15 AM39 °FSunny.21 mph75%30.39 "HgN/A
7:55 AM39 °FSunny.18 mph75%30.39 "HgN/A
7:35 AM39 °FClear.16 mph70%30.37 "HgN/A
7:15 AM39 °FClear.17 mph75%30.36 "HgN/A
6:55 AM39 °FClear.16 mph75%30.34 "HgN/A
6:35 AM39 °FClear.17 mph75%30.33 "HgN/A
6:15 AM39 °FClear.18 mph75%30.32 "HgN/A
5:55 AM39 °FClear.18 mph75%30.31 "HgN/A
5:35 AM39 °FClear.17 mph75%30.31 "HgN/A
5:15 AM41 °FClear.18 mph76%30.30 "HgN/A
4:55 AM41 °FClear.16 mph76%30.28 "HgN/A
4:35 AM41 °FClear.17 mph76%30.27 "HgN/A
4:15 AM41 °FClear.16 mph76%30.25 "HgN/A
3:55 AM43 °FClear.16 mph66%30.25 "HgN/A
3:35 AM43 °FClear.17 mph66%30.24 "HgN/A
3:15 AM43 °FClear.16 mph71%30.23 "HgN/A
2:55 AM45 °FClear.20 mph66%30.23 "HgN/A
2:35 AM43 °FClear.18 mph71%30.22 "HgN/A
2:15 AM39 °FClear.8 mph75%30.19 "HgN/A
Weather by CustomWeather, © 2014

See weather overviewHow to use our weather pages